Location: Unspecified
(0.0000°N, 0.0000°E)
Time: 18:14:39
(UTC+00:00)

STARLINK 1023 - Pass Details

Date: 17 January 2020
Orbit: 346 x 354 km, 53.0° (Epoch: 18 January)

Event Time Altitude Azimuth Distance (km) Brightness Sun altitude
Rises 05:24:28 0° 212° (SSW) 2,137 6.5 -10.6°
Reaches altitude 10° 05:26:28 10° 211° (SSW) 1,295 5.4 -10.1°
Maximum altitude 05:29:21 77° 124° (SE) 356 2.8 -9.5°
Drops below altitude 10° 05:32:13 10° 37° (NE) 1,292 5.7 -8.8°
Sets 05:34:13 0° 36° (NE) 2,130 6.8 -8.3°
